Regional Weather Roundup
Issued by NWS

Home | Current Version | Previous Version | Text Only | Print | Product List | Glossary Off
Versions: 1 2 3 4 5 6 7 8 9 10 11 12 13 14 15 16 17 18 19 20 21 22 23 24 25 26 27 28

000
ASUS45 KCYS 201710
RWRWY

WYOMING REGIONAL WEATHER ROUNDUP
NATIONAL WEATHER SERVICE CHEYENNE WY
1100 AM MDT SUN AUG 20 2017

NOTE:  "FAIR" INDICATES FEW OR NO CLOUDS BELOW 12,000 FEET
WITH NO SIGNIFICANT WEATHER AND/OR OBSTRUCTIONS TO VISIBILITY.

WYZ001-201800-
YELLOWSTONE NATIONAL PARK

CITY           SKY/WX    TMP DP  RH WIND       PRES   REMARKS
LK YELLOWSTONE   N/A     61  41  47 VRB5      30.29S
W YELLOWSTONE  NOT AVBL

$$
WYZ002>013-054>058-071-098>099-201800-
NORTHERN WYOMING

CITY           SKY/WX    TMP DP  RH WIND       PRES   REMARKS
JACKSON        FAIR      66  33  29 SE3       30.21S
CODY           FAIR      66  41  40 CALM      30.12F
GREYBULL       FAIR      70  39  32 VRB5      30.05F
WORLAND        FAIR      70  40  33 VRB5      30.07F
SHERIDAN       FAIR      73  44  35 SE8       30.05F
BUFFALO        FAIR      75  38  26 S21       30.09F
GILLETTE       FAIR      76  41  28 SE16G25   30.08F
HULETT         FAIR      72  45  37 E15       30.11F
NEWCASTLE      FAIR      75  41  29 SE12G17   30.12F

$$
WYZ014>020-022>026-101>103-201800-
CENTRAL WYOMING

CITY           SKY/WX    TMP DP  RH WIND       PRES   REMARKS
BIG PINEY      FAIR      70  31  23 VRB3      30.25S
PINEDALE       FAIR      72  28  20 NW5       30.26S
DUBOIS         FAIR      68  28  22 E3        30.21F
LANDER           N/A    N/A N/A N/A MISG      30.11F
RIVERTON       FAIR      72  33  24 VRB3      30.12S
CASPER         FAIR      71  36  27 VRB3      30.13F
DOUGLAS        FAIR      73  47  39 SE12      30.15F

$$
WYZ021-027>030-104>119-201800-
SOUTHERN WYOMING

CITY           SKY/WX    TMP DP  RH WIND       PRES   REMARKS
EVANSTON       FAIR      77  37  23 W9        30.25S
FORT BRIDGER   FAIR      80  32  17 W12       30.27S
ROCK SPRINGS   FAIR      75  33  21 CALM      30.23S
RAWLINS        FAIR      76  32  20 VRB6      30.24S
SARATOGA       FAIR      75  34  22 E3        30.26S
LARAMIE        FAIR      76  23  14 SE8       30.26S
CHEYENNE       FAIR      72  40  31 N16       30.20S
TORRINGTON     FAIR      75  51  43 SE12G20   30.11S
PINE BLUFFS    FAIR      72  46  40 N8        30.16S

$$




USA.gov is the U.S. government's official web portal to all federal, state and local government web resources and services.